| time (UTC) | temp C | wind direction | speed KPH | gust KPH | rain 1hr cm | rain 24hr cm | rain mn cm | humidity % | barometer mb |
| 20260831122041 | 19 | 221 | 24.1 | 41.8 | 0.00 | 8.31 | 0.99 | 75 | 1009.7 |
| 20260831121527 | 19 | 286 | 22.5 | 41.8 | 0.00 | 8.31 | 0.99 | 76 | 1009.7 |
| 20260831121034 | 19 | 264 | 19.3 | 37.0 | 0.00 | 8.31 | 0.99 | 78 | 1009.6 |
| 20260831120539 | 18 | 293 | 17.7 | 37.0 | 0.20 | 8.31 | 0.99 | 79 | 1009.7 |
| 20260831120016 | 18 | 223 | 17.7 | 33.8 | 1.80 | 8.31 | 0.99 | 81 | 1009.6 |
| 20260831115524 | 18 | 232 | 22.5 | 45.1 | 1.80 | 8.31 | 0.99 | 81 | 1009.5 |
| 20260831115030 | 18 | 218 | 25.7 | 45.1 | 1.80 | 8.31 | 0.99 | 83 | 1009.5 |
| 20260831114535 | 17 | 274 | 14.5 | 37.0 | 2.31 | 8.31 | 0.99 | 86 | 1009.4 |
| 20260831114020 | 17 | 266 | 20.9 | 38.6 | 2.49 | 8.31 | 0.99 | 87 | 1009.2 |
| 20260831113528 | 17 | 245 | 20.9 | 38.6 | 3.00 | 8.31 | 0.99 | 88 | 1009.2 |
| 20260831113017 | 17 | 281 | 20.9 | 37.0 | 3.40 | 8.31 | 0.99 | 89 | 1009.2 |
| 20260831112526 | 17 | 230 | 17.7 | 29.0 | 3.40 | 8.31 | 0.99 | 90 | 1009.1 |
| 20260831112055 | 17 | 242 | 16.1 | 32.2 | 3.40 | 8.31 | 0.99 | 90 | 1009.1 |
| 20260831111523 | 17 | 234 | 11.3 | 30.6 | 3.40 | 8.31 | 0.99 | 91 | 1008.9 |
| 20260831111028 | 16 | 248 | 16.1 | 30.6 | 3.51 | 8.31 | 0.99 | 89 | 1008.9 |
| 20260831110537 | 16 | 228 | 17.7 | 22.5 | 3.30 | 8.10 | 0.97 | 89 | 1009.0 |
| 20260831110014 | 16 | 268 | 6.4 | 14.5 | 1.70 | 6.50 | 0.64 | 89 | 1008.8 |
| 20260831105543 | 16 | 238 | 6.4 | 20.9 | 1.80 | 6.50 | 0.64 | 88 | 1008.8 |
| 20260831105028 | 16 | 244 | 9.7 | 25.7 | 1.80 | 6.50 | 0.64 | 87 | 1008.9 |
| 20260831104515 | 16 | 248 | 12.9 | 25.7 | 1.30 | 5.99 | 0.53 | 86 | 1009.0 |
| 20260831104021 | 17 | 244 | 14.5 | 27.4 | 1.09 | 5.79 | 0.51 | 85 | 1008.9 |
| 20260831103527 | 17 | 257 | 12.9 | 27.4 | 0.51 | 5.21 | 0.38 | 84 | 1008.9 |
| 20260831103016 | 17 | 251 | 11.3 | 30.6 | 0.20 | 4.90 | 0.33 | 83 | 1008.7 |
| 20260831102522 | 17 | 257 | 14.5 | 32.2 | 0.20 | 4.90 | 0.33 | 82 | 1008.6 |
| 20260831102031 | 17 | 257 | 16.1 | 32.2 | 0.20 | 4.90 | 0.33 | 81 | 1008.6 |
| 20260831101537 | 17 | 194 | 12.9 | 33.8 | 0.10 | 4.80 | 0.30 | 80 | 1008.5 |
| 20260831101016 | 17 | 208 | 19.3 | 33.8 | 0.10 | 4.80 | 0.30 | 80 | 1008.4 |
| 20260831100522 | 17 | 277 | 16.1 | 33.8 | 0.10 | 4.80 | 0.30 | 78 | 1008.3 |
| 20260831100022 | 18 | 142 | 14.5 | 27.4 | 0.10 | 4.80 | 0.30 | 79 | 1008.2 |
| 20260831095526 | 18 | 224 | 12.9 | 32.2 | 0.00 | 5.99 | 0.28 | 78 | 1008.2 |
| 20260831095014 | 18 | 274 | 14.5 | 32.2 | 0.00 | 5.99 | 0.28 | 76 | 1008.1 |
| 20260831094523 | 19 | 251 | 19.3 | 43.5 | 0.00 | 5.99 | 0.28 | 74 | 1008.1 |
| 20260831094030 | 19 | 262 | 20.9 | 43.5 | 0.00 | 5.99 | 0.28 | 72 | 1008.2 |
| 20260831093519 | 20 | 236 | 24.1 | 37.0 | 0.00 | 5.99 | 0.28 | 72 | 1007.9 |
| 20260831093042 | 20 | 188 | 14.5 | 30.6 | 0.00 | 5.99 | 0.28 | 74 | 1007.8 |
| 20260831092530 | 19 | 215 | 19.3 | 38.6 | 0.00 | 5.99 | 0.28 | 75 | 1007.8 |
| 20260831092018 | 19 | 209 | 19.3 | 40.2 | 0.00 | 5.99 | 0.28 | 75 | 1007.6 |
| 20260831091550 | 18 | 207 | 20.9 | 41.8 | 0.00 | 5.99 | 0.28 | 77 | 1007.6 |
| 20260831091017 | 18 | 200 | 20.9 | 41.8 | 0.00 | 5.99 | 0.28 | 79 | 1007.6 |
| 20260831090522 | 18 | 177 | 19.3 | 46.7 | 0.00 | 5.99 | 0.28 | 82 | 1007.4 |
| 20260831090023 | 18 | 199 | 20.9 | 35.4 | 0.00 | 5.99 | 0.28 | 84 | 1007.4 |
| 20260831085529 | 18 | 134 | 20.9 | 43.5 | 0.00 | 7.01 | 0.28 | 85 | 1007.4 |
| 20260831085016 | 18 | 169 | 24.1 | 45.1 | 0.00 | 7.01 | 0.28 | 86 | 1007.3 |
| 20260831084521 | 17 | 189 | 19.3 | 45.1 | 0.00 | 7.01 | 0.28 | 87 | 1007.0 |
| 20260831084053 | 17 | 178 | 16.1 | 46.7 | 0.00 | 7.01 | 0.28 | 88 | 1007.2 |
| 20260831083521 | 17 | 165 | 20.9 | 41.8 | 0.20 | 7.01 | 0.28 | 90 | 1007.0 |
| 20260831083028 | 17 | 196 | 20.9 | 46.7 | 0.30 | 7.01 | 0.28 | 90 | 1007.1 |
| 20260831082514 | 17 | 188 | 22.5 | 46.7 | 0.30 | 7.01 | 0.28 | 91 | 1007.1 |
| 20260831082019 | 17 | 218 | 19.3 | 49.9 | 0.30 | 7.01 | 0.28 | 91 | 1006.9 |
| 20260831081526 | 17 | 182 | 19.3 | 49.9 | 0.30 | 7.01 | 0.28 | 92 | 1007.0 |
| 20260831081033 | 17 | 169 | 19.3 | 45.1 | 0.30 | 7.01 | 0.28 | 93 | 1006.9 |
| 20260831080522 | 16 | 213 | 17.7 | 35.4 | 0.30 | 7.01 | 0.28 | 93 | 1006.9 |
| 20260831080024 | 16 | 163 | 19.3 | 35.4 | 0.30 | 7.01 | 0.28 | 93 | 1007.0 |
| 20260831075527 | 16 | 116 | 14.5 | 40.2 | 0.30 | 7.11 | 0.28 | 93 | 1006.9 |
| 20260831075030 | 16 | 172 | 14.5 | 37.0 | 0.30 | 7.11 | 0.28 | 93 | 1006.8 |
| 20260831074519 | 16 | 126 | 12.9 | 33.8 | 0.30 | 7.11 | 0.28 | 93 | 1006.7 |
| 20260831074022 | 16 | 158 | 19.3 | 40.2 | 0.30 | 7.11 | 0.28 | 93 | 1006.9 |
| 20260831073550 | 16 | 146 | 19.3 | 41.8 | 0.10 | 6.91 | 0.23 | 93 | 1006.8 |
| 20260831073018 | 16 | 161 | 19.3 | 41.8 | 0.10 | 6.81 | 0.23 | 93 | 1006.7 |
| 20260831072528 | 16 | 164 | 19.3 | 40.2 | 0.20 | 6.81 | 0.23 | 93 | 1006.7 |
| 20260831072015 | 16 | 130 | 14.5 | 33.8 | 0.20 | 6.81 | 0.23 | 93 | 1006.6 |
| 20260831071524 | 16 | 132 | 12.9 | 35.4 | 0.20 | 6.81 | 0.23 | 93 | 1006.7 |
| 20260831071051 | 16 | 103 | 16.1 | 35.4 | 0.20 | 6.81 | 0.23 | 93 | 1006.6 |
| 20260831070519 | 16 | 128 | 17.7 | 35.4 | 0.20 | 6.81 | 0.23 | 93 | 1006.6 |
| 20260831070021 | 16 | 157 | 17.7 | 43.5 | 0.20 | 6.81 | 0.23 | 93 | 1006.8 |
| 20260831065528 | 16 | 163 | 19.3 | 43.5 | 0.20 | 6.91 | 0.23 | 93 | 1006.7 |
| 20260831065030 | 16 | 153 | 12.9 | 25.7 | 0.20 | 6.91 | 0.23 | 94 | 1006.9 |
| 20260831064539 | 16 | 108 | 14.5 | 41.8 | 0.20 | 6.91 | 0.23 | 93 | 1006.9 |
| 20260831064019 | 16 | 185 | 16.1 | 40.2 | 0.20 | 6.91 | 0.23 | 93 | 1007.0 |
| 20260831063549 | 16 | 169 | 17.7 | 32.2 | 0.20 | 6.91 | 0.23 | 93 | 1006.8 |
| 20260831063054 | 16 | 192 | 14.5 | 27.4 | 0.20 | 6.81 | 0.20 | 93 | 1006.7 |
| 20260831062522 | 16 | 135 | 14.5 | 27.4 | 0.30 | 6.71 | 0.18 | 93 | 1006.8 |
| 20260831062027 | 16 | 154 | 11.3 | 27.4 | 0.41 | 6.71 | 0.18 | 93 | 1007.0 |
| 20260831061515 | 16 | 111 | 9.7 | 27.4 | 0.51 | 6.71 | 0.18 | 93 | 1007.1 |
| 20260831061020 | 16 | 178 | 12.9 | 35.4 | 0.71 | 6.71 | 0.18 | 93 | 1007.2 |
| 20260831060526 | 16 | 134 | 16.1 | 35.4 | 0.79 | 6.71 | 0.18 | 93 | 1007.2 |
| 20260831060052 | 16 | 158 | 9.7 | 27.4 | 0.89 | 6.71 | 0.18 | 93 | 1007.3 |
| 20260831055520 | 16 | 155 | 14.5 | 27.4 | 0.89 | 7.80 | 0.18 | 93 | 1007.4 |
| 20260831055028 | 16 | 170 | 11.3 | 17.7 | 0.89 | 7.80 | 0.18 | 92 | 1007.3 |
| 20260831054517 | 16 | 106 | 11.3 | 19.3 | 0.89 | 7.80 | 0.18 | 92 | 1007.0 |
| 20260831054021 | 16 | 140 | 8.0 | 19.3 | 0.89 | 7.80 | 0.18 | 92 | 1007.0 |
| 20260831053530 | 16 | 184 | 8.0 | 24.1 | 0.79 | 7.70 | 0.15 | 92 | 1006.9 |
| 20260831053018 | 16 | 190 | 12.9 | 24.1 | 0.71 | 7.59 | 0.15 | 92 | 1007.0 |
| 20260831052547 | 16 | 129 | 11.3 | 27.4 | 0.61 | 7.49 | 0.13 | 92 | 1006.9 |
| 20260831052029 | 16 | 174 | 14.5 | 25.7 | 0.51 | 7.39 | 0.10 | 92 | 1006.9 |
| 20260831051539 | 16 | 150 | 14.5 | 25.7 | 0.41 | 7.29 | 0.08 | 91 | 1007.0 |
| 20260831051025 | 16 | 162 | 12.9 | 20.9 | 0.20 | 7.11 | 0.05 | 92 | 1006.9 |
| 20260831050513 | 16 | 163 | 9.7 | 20.9 | 0.10 | 7.01 | 0.03 | 91 | 1006.9 |
| 20260831050016 | 16 | 120 | 8.0 | 29.0 | 0.00 | 6.91 | 0.00 | 91 | 1007.0 |
| 20260831045521 | 16 | 168 | 16.1 | 32.2 | 0.00 | 7.11 | 0.00 | 93 | 1007.1 |
| 20260831045052 | 16 | 110 | 14.5 | 30.6 | 0.00 | 7.11 | 0.00 | 91 | 1007.2 |
| 20260831044521 | 16 | 186 | 11.3 | 22.5 | 0.00 | 7.11 | 0.00 | 91 | 1007.2 |
| 20260831044029 | 16 | 130 | 8.0 | 22.5 | 0.00 | 7.11 | 0.00 | 91 | 1007.1 |
| 20260831043513 | 16 | 170 | 11.3 | 25.7 | 0.00 | 7.11 | 0.00 | 91 | 1007.1 |
| 20260831043021 | 16 | 162 | 12.9 | 25.7 | 0.00 | 7.11 | 0.00 | 91 | 1007.1 |
| 20260831042530 | 16 | 136 | 9.7 | 25.7 | 0.00 | 7.11 | 0.00 | 91 | 1007.0 |
| 20260831042018 | 16 | 150 | 11.3 | 25.7 | 0.00 | 7.11 | 0.00 | 91 | 1006.9 |
| 20260831041527 | 16 | 100 | 6.4 | 25.7 | 0.00 | 7.11 | 0.00 | 91 | 1006.9 |
| 20260831041027 | 16 | 134 | 9.7 | 19.3 | 0.00 | 7.11 | 0.00 | 91 | 1007.2 |
| 20260831040517 | 16 | 164 | 8.0 | 17.7 | 0.00 | 7.11 | 0.00 | 91 | 1007.1 |
| 20260831040020 | 16 | 114 | 6.4 | 25.7 | 0.00 | 7.11 | 0.00 | 91 | 1007.0 |
| 20260831035530 | 16 | 138 | 8.0 | 25.7 | 0.00 | 7.11 | 0.00 | 91 | 1007.1 |
| 20260831035017 | 17 | 166 | 9.7 | 19.3 | 0.00 | 7.11 | 0.00 | 91 | 1007.1 |
| 20260831034521 | 17 | 135 | 8.0 | 24.1 | 0.00 | 7.11 | 0.00 | 91 | 1007.0 |
| 20260831034029 | 17 | 123 | 11.3 | 24.1 | 0.00 | 7.11 | 0.00 | 91 | 1007.1 |
| 20260831033538 | 17 | 173 | 14.5 | 25.7 | 0.00 | 7.11 | 0.00 | 91 | 1007.1 |
| 20260831033023 | 17 | 148 | 12.9 | 22.5 | 0.00 | 7.11 | 0.00 | 90 | 1007.3 |
| 20260831032528 | 17 | 102 | 9.7 | 19.3 | 0.00 | 7.11 | 0.00 | 91 | 1007.2 |
| 20260831032017 | 17 | 134 | 8.0 | 22.5 | 0.00 | 7.11 | 0.00 | 91 | 1007.2 |
| 20260831031527 | 17 | 161 | 11.3 | 22.5 | 0.00 | 7.11 | 0.00 | 91 | 1007.3 |
| 20260831031016 | 17 | 186 | 11.3 | 29.0 | 0.00 | 7.11 | 0.00 | 91 | 1007.3 |
| 20260831030524 | 17 | 163 | 12.9 | 37.0 | 0.00 | 7.11 | 0.00 | 91 | 1007.4 |
| 20260831030023 | 17 | 141 | 19.3 | 37.0 | 0.00 | 7.11 | 0.00 | 91 | 1007.5 |
| 20260831025532 | 17 | 204 | 12.9 | 33.8 | 0.00 | 7.11 | 0.00 | 91 | 1007.5 |
| 20260831025040 | 17 | 136 | 17.7 | 33.8 | 0.00 | 7.11 | 0.00 | 91 | 1007.7 |
| 20260831024528 | 17 | 114 | 12.9 | 24.1 | 0.00 | 7.11 | 0.00 | 91 | 1007.6 |
| 20260831024017 | 17 | 166 | 8.0 | 19.3 | 0.00 | 7.11 | 0.00 | 91 | 1007.6 |
| 20260831023521 | 17 | 172 | 12.9 | 19.3 | 0.00 | 7.11 | 0.00 | 91 | 1007.6 |
| 20260831023027 | 17 | 140 | 9.7 | 19.3 | 0.00 | 7.11 | 0.00 | 91 | 1007.6 |
| 20260831022516 | 17 | 223 | 8.0 | 24.1 | 0.00 | 7.11 | 0.00 | 91 | 1007.6 |
| 20260831022024 | 17 | 203 | 11.3 | 24.1 | 0.00 | 7.11 | 0.00 | 91 | 1007.8 |
| 20260831021532 | 17 | 139 | 11.3 | 20.9 | 0.00 | 7.11 | 0.00 | 91 | 1007.6 |
| 20260831021015 | 17 | 150 | 12.9 | 20.9 | 0.00 | 7.11 | 0.00 | 91 | 1007.6 |
| 20260831020521 | 17 | 162 | 8.0 | 30.6 | 0.00 | 7.11 | 0.00 | 92 | 1007.5 |
| 20260831020023 | 17 | 142 | 11.3 | 30.6 | 0.00 | 7.11 | 0.00 | 92 | 1007.5 |
| 20260831015531 | 17 | 136 | 12.9 | 25.7 | 0.00 | 7.11 | 0.00 | 92 | 1007.6 |
| 20260831015019 | 17 | 144 | 11.3 | 22.5 | 0.00 | 7.11 | 0.00 | 92 | 1007.6 |
| 20260831014523 | 17 | 207 | 9.7 | 22.5 | 0.00 | 7.11 | 0.00 | 92 | 1007.7 |
| 20260831014031 | 17 | 175 | 8.0 | 22.5 | 0.00 | 7.11 | 0.00 | 92 | 1007.7 |
| 20260831013520 | 17 | 122 | 6.4 | 19.3 | 0.00 | 7.11 | 0.00 | 92 | 1007.7 |
| 20260831013027 | 17 | 161 | 11.3 | 19.3 | 0.00 | 7.11 | 0.00 | 92 | 1007.7 |
| 20260831012516 | 17 | 163 | 8.0 | 17.7 | 0.00 | 7.11 | 0.00 | 92 | 1007.6 |
| 20260831012021 | 17 | 135 | 8.0 | 17.7 | 0.00 | 7.11 | 0.00 | 92 | 1007.5 |
| 20260831011549 | 17 | 150 | 8.0 | 19.3 | 0.00 | 7.11 | 0.00 | 92 | 1007.5 |
| 20260831011015 | 17 | 111 | 6.4 | 25.7 | 0.00 | 7.11 | 0.00 | 93 | 1007.7 |
| 20260831010525 | 17 | 118 | 11.3 | 25.7 | 0.00 | 7.11 | 0.00 | 93 | 1007.8 |
| 20260831010042 | 17 | 153 | 11.3 | 19.3 | 0.00 | 7.11 | 0.00 | 93 | 1008.0 |
| 20260831005531 | 17 | 135 | 11.3 | 24.1 | 0.00 | 7.19 | 0.00 | 93 | 1007.8 |
| 20260831005020 | 17 | 191 | 9.7 | 24.1 | 0.00 | 7.19 | 0.00 | 93 | 1007.8 |
| 20260831004526 | 17 | 150 | 12.9 | 20.9 | 0.00 | 7.19 | 0.00 | 93 | 1007.9 |
| 20260831004028 | 17 | 117 | 6.4 | 24.1 | 0.00 | 7.19 | 0.00 | 93 | 1008.0 |
| 20260831003517 | 17 | 147 | 11.3 | 24.1 | 0.00 | 7.19 | 0.00 | 93 | 1007.9 |
| 20260831003023 | 17 | 126 | 9.7 | 19.3 | 0.00 | 7.19 | 0.00 | 93 | 1007.8 |
| 20260831002513 | 17 | 99 | 4.8 | 17.7 | 0.00 | 7.19 | 0.00 | 93 | 1007.8 |
| 20260831002020 | 17 | 140 | 8.0 | 17.7 | 0.00 | 7.19 | 0.00 | 93 | 1007.9 |
| 20260831001543 | 17 | 156 | 11.3 | 17.7 | 0.00 | 7.19 | 0.00 | 93 | 1007.9 |
| 20260831001054 | 17 | 90 | 9.7 | 17.7 | 0.00 | 7.19 | 0.00 | 93 | 1007.9 |
| 20260831000542 | 17 | 167 | 4.8 | 14.5 | 0.00 | 7.19 | 0.00 | 93 | 1008.0 |
| 20260831000024 | 16 | 188 | 9.7 | 14.5 | 0.00 | 7.19 | 0.00 | 93 | 1008.0 |
| 20260830235527 | 16 | 174 | 6.4 | 17.7 | 0.00 | 7.39 | 0.00 | 93 | 1008.1 |
| 20260830235015 | 16 | 181 | 6.4 | 19.3 | 0.00 | 7.39 | 0.00 | 93 | 1008.4 |
| 20260830234525 | 16 | 166 | 11.3 | 19.3 | 0.00 | 7.39 | 0.00 | 93 | 1008.4 |
| 20260830234028 | 17 | 173 | 4.8 | 12.9 | 0.00 | 7.39 | 0.00 | 93 | 1008.3 |
| 20260830233517 | 17 | 152 | 3.2 | 11.3 | 0.00 | 7.39 | 0.00 | 93 | 1008.4 |
| 20260830233042 | 17 | 183 | 4.8 | 12.9 | 0.00 | 7.39 | 0.00 | 93 | 1008.5 |
| 20260830232553 | 17 | 149 | 4.8 | 12.9 | 0.00 | 7.39 | 0.00 | 93 | 1008.4 |
| 20260830232041 | 17 | 157 | 6.4 | 12.9 | 0.00 | 7.39 | 0.00 | 93 | 1008.5 |
| 20260830231550 | 17 | 155 | 3.2 | 12.9 | 0.00 | 7.39 | 0.00 | 93 | 1008.4 |
| 20260830231016 | 17 | 153 | 3.2 | 14.5 | 0.00 | 7.39 | 0.00 | 93 | 1008.4 |
| 20260830230544 | 17 | 152 | 4.8 | 16.1 | 0.00 | 7.39 | 0.00 | 93 | 1008.5 |
| 20260830230049 | 17 | 158 | 8.0 | 16.1 | 0.00 | 7.39 | 0.00 | 93 | 1008.6 |
| 20260830225516 | 17 | 178 | 4.8 | 14.5 | 0.00 | 7.39 | 0.00 | 93 | 1008.5 |
| 20260830225020 | 17 | 166 | 6.4 | 16.1 | 0.00 | 7.39 | 0.00 | 93 | 1008.6 |
| 20260830224529 | 17 | 146 | 4.8 | 16.1 | 0.00 | 7.39 | 0.00 | 93 | 1008.7 |
| 20260830224016 | 17 | 175 | 4.8 | 12.9 | 0.00 | 7.39 | 0.00 | 93 | 1008.7 |
| 20260830223525 | 17 | 111 | 6.4 | 19.3 | 0.00 | 7.39 | 0.00 | 93 | 1008.7 |
| 20260830223029 | 17 | 136 | 9.7 | 19.3 | 0.00 | 7.39 | 0.00 | 93 | 1008.8 |
| 20260830222517 | 17 | 149 | 4.8 | 16.1 | 0.00 | 7.39 | 0.00 | 93 | 1008.8 |
| 20260830222052 | 17 | 161 | 8.0 | 16.1 | 0.00 | 7.39 | 0.00 | 93 | 1008.8 |
| 20260830221520 | 17 | 121 | 4.8 | 11.3 | 0.00 | 7.39 | 0.00 | 93 | 1008.8 |
| 20260830221052 | 17 | 116 | 3.2 | 11.3 | 0.00 | 7.39 | 0.00 | 93 | 1008.9 |
| 20260830220516 | 17 | 5 | 3.2 | 11.3 | 0.00 | 7.39 | 0.00 | 93 | 1008.8 |
| 20260830220018 | 17 | 121 | 1.6 | 6.4 | 0.00 | 7.39 | 0.00 | 93 | 1008.9 |
| 20260830215527 | 17 | 121 | 1.6 | 6.4 | 0.00 | 7.59 | 1.47 | 92 | 1008.9 |
| 20260830215016 | 17 | 121 | 1.6 | 6.4 | 0.00 | 7.59 | 1.47 | 92 | 1009.0 |
| 20260830214525 | 17 | 121 | 1.6 | 6.4 | 0.00 | 7.59 | 1.47 | 92 | 1009.0 |
| 20260830214030 | 17 | 121 | 1.6 | 6.4 | 0.00 | 7.59 | 1.47 | 92 | 1009.1 |
| 20260830213518 | 17 | 121 | 1.6 | 8.0 | 0.00 | 7.59 | 1.47 | 92 | 1009.1 |
| 20260830213052 | 17 | 134 | 3.2 | 8.0 | 0.00 | 7.59 | 1.47 | 92 | 1009.2 |
| 20260830212538 | 17 | 135 | 1.6 | 6.4 | 0.00 | 7.59 | 1.47 | 92 | 1009.3 |
| 20260830212022 | 17 | 125 | 1.6 | 8.0 | 0.00 | 7.59 | 1.47 | 91 | 1009.2 |
| 20260830211529 | 17 | 159 | 1.6 | 4.8 | 0.00 | 7.59 | 1.47 | 91 | 1009.2 |
| 20260830211038 | 17 | 159 | 1.6 | 4.8 | 0.00 | 7.59 | 1.47 | 91 | 1009.1 |
| 20260830210525 | 17 | 159 | 1.6 | 8.0 | 0.00 | 7.59 | 1.47 | 91 | 1009.1 |
| 20260830210044 | 17 | 159 | 0.0 | 8.0 | 0.00 | 7.59 | 1.47 | 91 | 1009.1 |
| 20260830205532 | 17 | 159 | 0.0 | 4.8 | 0.10 | 8.10 | 1.47 | 91 | 1009.2 |
| 20260830205021 | 17 | 159 | 1.6 | 4.8 | 0.30 | 8.10 | 1.47 | 91 | 1009.4 |
| 20260830204530 | 17 | 159 | 1.6 | 8.0 | 0.61 | 8.10 | 1.47 | 90 | 1009.5 |
| 20260830204018 | 17 | 159 | 3.2 | 8.0 | 1.50 | 8.10 | 1.47 | 90 | 1009.5 |
| 20260830203523 | 17 | 111 | 1.6 | 4.8 | 2.69 | 8.10 | 1.47 | 90 | 1009.5 |
| 20260830203029 | 17 | 229 | 0.0 | 4.8 | 2.90 | 8.10 | 1.47 | 90 | 1009.6 |
| 20260830202517 | 17 | 229 | 0.0 | 4.8 | 3.20 | 8.10 | 1.47 | 89 | 1009.6 |
| 20260830202050 | 17 | 229 | 0.0 | 9.7 | 3.20 | 8.10 | 1.47 | 89 | 1009.6 |
| 20260830201517 | 17 | 229 | 0.0 | 11.3 | 3.20 | 8.10 | 1.47 | 89 | 1009.7 |
| 20260830201021 | 17 | 154 | 4.8 | 11.3 | 3.20 | 8.10 | 1.47 | 88 | 1009.9 |
| 20260830200528 | 18 | 163 | 3.2 | 8.0 | 3.20 | 8.10 | 1.47 | 88 | 1009.9 |
| 20260830200032 | 18 | 163 | 3.2 | 12.9 | 3.20 | 8.10 | 1.47 | 88 | 1010.0 |
| 20260830195520 | 18 | 179 | 6.4 | 22.5 | 3.00 | 9.80 | 1.45 | 87 | 1010.0 |
| 20260830195023 | 18 | 231 | 12.9 | 25.7 | 2.90 | 9.70 | 1.42 | 86 | 1010.2 |
| 20260830194528 | 19 | 178 | 8.0 | 16.1 | 2.59 | 9.40 | 1.37 | 86 | 1010.2 |
| 20260830194014 | 20 | 169 | 6.4 | 11.3 | 1.40 | 8.20 | 1.12 | 85 | 1009.9 |
| 20260830193523 | 20 | 244 | 3.2 | 8.0 | 0.51 | 7.29 | 0.94 | 84 | 1009.8 |
| 20260830192021 | 20 | 167 | 0.0 | 3.2 | 0.00 | 6.81 | 0.84 | 83 | 1009.6 |
| 20260830191532 | 20 | 167 | 0.0 | 4.8 | 0.00 | 6.81 | 0.84 | 83 | 1009.7 |
| 20260830191020 | 20 | 167 | 1.6 | 4.8 | 0.00 | 6.81 | 0.84 | 83 | 1009.6 |
| 20260830190550 | 20 | 167 | 1.6 | 4.8 | 0.00 | 6.81 | 0.84 | 82 | 1009.7 |
| 20260830190031 | 20 | 167 | 1.6 | 4.8 | 0.00 | 6.81 | 0.84 | 82 | 1009.7 |
| 20260830185520 | 20 | 167 | 3.2 | 9.7 | 0.00 | 10.79 | 0.84 | 82 | 1009.7 |
| 20260830185028 | 20 | 167 | 4.8 | 9.7 | 0.00 | 10.79 | 0.84 | 82 | 1009.7 |
| 20260830184516 | 20 | 162 | 4.8 | 11.3 | 0.00 | 10.79 | 0.84 | 81 | 1009.8 |
| 20260830184022 | 20 | 166 | 4.8 | 11.3 | 0.00 | 10.79 | 0.84 | 81 | 1009.8 |
| 20260830183530 | 20 | 153 | 3.2 | 11.3 | 0.00 | 10.79 | 0.84 | 81 | 1009.7 |
| 20260830183019 | 20 | 168 | 4.8 | 9.7 | 0.00 | 10.79 | 0.84 | 81 | 1009.8 |
| 20260830182546 | 20 | 184 | 4.8 | 9.7 | 0.00 | 10.79 | 0.84 | 81 | 1009.8 |
| 20260830182027 | 20 | 205 | 3.2 | 9.7 | 0.00 | 10.79 | 0.84 | 80 | 1009.9 |
| 20260830181518 | 20 | 175 | 6.4 | 11.3 | 0.00 | 10.79 | 0.84 | 80 | 1010.1 |
| 20260830181052 | 20 | 213 | 4.8 | 9.7 | 0.00 | 10.79 | 0.84 | 80 | 1010.1 |
| 20260830180540 | 20 | 180 | 4.8 | 6.4 | 0.00 | 10.79 | 0.84 | 80 | 1010.0 |
| 20260830180017 | 20 | 180 | 1.6 | 8.0 | 0.00 | 10.79 | 0.84 | 79 | 1010.0 |
| 20260830175525 | 20 | 180 | 4.8 | 11.3 | 0.00 | 11.00 | 0.84 | 79 | 1010.1 |
| 20260830175014 | 21 | 165 | 1.6 | 9.7 | 0.00 | 11.00 | 0.84 | 79 | 1010.1 |
| 20260830174525 | 21 | 165 | 4.8 | 9.7 | 0.00 | 11.00 | 0.84 | 78 | 1010.1 |
| 20260830174031 | 21 | 153 | 1.6 | 9.7 | 0.00 | 11.00 | 0.84 | 78 | 1010.1 |
| 20260830173537 | 21 | 153 | 1.6 | 4.8 | 0.00 | 11.00 | 0.84 | 78 | 1010.2 |
| 20260830173044 | 21 | 153 | 1.6 | 8.0 | 0.00 | 11.00 | 0.84 | 78 | 1010.1 |
| 20260830172530 | 21 | 153 | 1.6 | 8.0 | 0.00 | 11.00 | 0.84 | 77 | 1010.2 |
| 20260830172016 | 21 | 153 | 3.2 | 12.9 | 0.00 | 11.00 | 0.84 | 77 | 1010.3 |
| 20260830171521 | 21 | 132 | 4.8 | 14.5 | 0.00 | 11.00 | 0.84 | 76 | 1010.3 |
| 20260830171028 | 21 | 142 | 6.4 | 14.5 | 0.00 | 11.00 | 0.84 | 76 | 1010.4 |
| 20260830170531 | 21 | 223 | 3.2 | 12.9 | 0.00 | 11.00 | 0.84 | 76 | 1010.4 |
| 20260830170031 | 21 | 123 | 4.8 | 11.3 | 0.00 | 11.00 | 0.84 | 75 | 1010.4 |
| 20260830165515 | 21 | 180 | 6.4 | 11.3 | 0.00 | 11.20 | 0.84 | 74 | 1010.3 |
| 20260830165017 | 21 | 168 | 4.8 | 22.5 | 0.00 | 11.20 | 0.84 | 74 | 1010.4 |
| 20260830164525 | 21 | 220 | 6.4 | 22.5 | 0.00 | 11.20 | 0.84 | 74 | 1010.5 |
| 20260830164032 | 21 | 260 | 9.7 | 12.9 | 0.00 | 11.20 | 0.84 | 74 | 1010.5 |
| 20260830163521 | 21 | 184 | 6.4 | 16.1 | 0.00 | 11.20 | 0.84 | 75 | 1010.5 |
| 20260830163049 | 21 | 158 | 4.8 | 16.1 | 0.00 | 11.20 | 0.84 | 75 | 1010.4 |
| 20260830162517 | 21 | 170 | 8.0 | 16.1 | 0.10 | 11.20 | 0.84 | 75 | 1010.4 |
| 20260830162024 | 21 | 194 | 8.0 | 19.3 | 0.10 | 11.20 | 0.84 | 75 | 1010.4 |
| 20260830161530 | 21 | 188 | 11.3 | 20.9 | 0.10 | 11.20 | 0.84 | 76 | 1010.5 |
| 20260830161019 | 21 | 165 | 3.2 | 11.3 | 0.10 | 11.20 | 0.84 | 77 | 1010.6 |
| 20260830160524 | 21 | 211 | 6.4 | 16.1 | 0.10 | 11.20 | 0.84 | 77 | 1010.6 |
| 20260830160050 | 21 | 175 | 8.0 | 16.1 | 0.10 | 11.20 | 0.84 | 76 | 1010.6 |
| 20260830155536 | 21 | 192 | 9.7 | 16.1 | 0.10 | 11.30 | 0.84 | 76 | 1010.6 |
| 20260830155024 | 21 | 146 | 9.7 | 20.9 | 0.10 | 11.30 | 0.84 | 76 | 1010.7 |
| 20260830154528 | 21 | 210 | 8.0 | 24.1 | 0.10 | 11.30 | 0.84 | 77 | 1010.8 |
| 20260830154015 | 21 | 191 | 9.7 | 16.1 | 0.10 | 11.30 | 0.84 | 77 | 1010.8 |
| 20260830153543 | 21 | 150 | 11.3 | 17.7 | 0.10 | 11.30 | 0.84 | 77 | 1010.8 |
| 20260830153029 | 21 | 160 | 9.7 | 22.5 | 0.10 | 11.30 | 0.84 | 76 | 1010.8 |
| 20260830152518 | 21 | 155 | 11.3 | 24.1 | 0.00 | 11.20 | 0.81 | 76 | 1011.0 |
| 20260830152022 | 21 | 182 | 9.7 | 22.5 | 0.00 | 11.20 | 0.81 | 76 | 1011.0 |
| 20260830151530 | 21 | 260 | 11.3 | 22.5 | 0.00 | 11.20 | 0.81 | 76 | 1011.0 |
| 20260830151018 | 21 | 187 | 4.8 | 29.0 | 0.00 | 11.20 | 0.81 | 76 | 1011.1 |
| 20260830150527 | 21 | 200 | 14.5 | 29.0 | 0.00 | 11.20 | 0.81 | 75 | 1011.1 |
| 20260830150049 | 21 | 231 | 11.3 | 16.1 | 0.00 | 11.20 | 0.81 | 76 | 1011.0 |
| 20260830145516 | 21 | 191 | 9.7 | 22.5 | 0.00 | 11.30 | 0.81 | 76 | 1011.2 |
| 20260830145024 | 21 | 189 | 12.9 | 24.1 | 0.00 | 11.30 | 0.81 | 76 | 1011.2 |
| 20260830144513 | 21 | 167 | 8.0 | 19.3 | 0.00 | 11.30 | 0.81 | 77 | 1011.2 |
| 20260830144041 | 21 | 221 | 12.9 | 19.3 | 0.00 | 11.30 | 0.81 | 77 | 1011.2 |
| 20260830143525 | 21 | 190 | 11.3 | 19.3 | 0.00 | 11.30 | 0.81 | 77 | 1011.2 |
| 20260830143035 | 21 | 123 | 9.7 | 19.3 | 0.00 | 11.30 | 0.81 | 77 | 1011.2 |
| 20260830142523 | 21 | 152 | 8.0 | 24.1 | 0.00 | 11.30 | 0.81 | 76 | 1011.3 |
| 20260830142028 | 21 | 183 | 14.5 | 24.1 | 0.00 | 11.30 | 0.81 | 76 | 1011.3 |
| 20260830141518 | 21 | 199 | 11.3 | 24.1 | 0.00 | 11.30 | 0.81 | 76 | 1011.2 |
| 20260830141020 | 21 | 173 | 11.3 | 27.4 | 0.00 | 11.30 | 0.81 | 76 | 1011.2 |
| 20260830140530 | 21 | 262 | 9.7 | 25.7 | 0.00 | 11.30 | 0.81 | 76 | 1011.2 |
| 20260830140032 | 21 | 161 | 11.3 | 25.7 | 0.00 | 11.30 | 0.81 | 76 | 1011.2 |
| 20260830135542 | 21 | 205 | 8.0 | 24.1 | 0.00 | 11.30 | 0.81 | 76 | 1011.2 |
| 20260830135025 | 21 | 186 | 14.5 | 24.1 | 0.00 | 11.30 | 0.81 | 76 | 1011.3 |
| 20260830134514 | 21 | 206 | 14.5 | 20.9 | 0.00 | 11.30 | 0.81 | 76 | 1011.2 |
| 20260830134020 | 21 | 205 | 11.3 | 20.9 | 0.00 | 11.30 | 0.81 | 77 | 1011.2 |
| 20260830133529 | 21 | 203 | 11.3 | 24.1 | 0.00 | 11.30 | 0.81 | 77 | 1011.2 |
| 20260830133017 | 21 | 265 | 9.7 | 24.1 | 0.00 | 11.30 | 0.81 | 77 | 1011.3 |
| 20260830132543 | 21 | 236 | 8.0 | 27.4 | 0.00 | 11.30 | 0.81 | 79 | 1011.3 |
| 20260830132029 | 20 | 165 | 14.5 | 27.4 | 0.00 | 11.30 | 0.81 | 80 | 1011.3 |
| 20260830131518 | 20 | 178 | 12.9 | 27.4 | 0.00 | 11.30 | 0.81 | 82 | 1011.2 |
| 20260830131024 | 20 | 216 | 11.3 | 22.5 | 0.00 | 11.30 | 0.81 | 83 | 1011.3 |
| 20260830130515 | 20 | 267 | 8.0 | 19.3 | 0.00 | 11.30 | 0.81 | 82 | 1011.3 |
| 20260830130030 | 20 | 254 | 9.7 | 17.7 | 0.00 | 11.30 | 0.81 | 82 | 1011.2 |
| 20260830125519 | 20 | 240 | 8.0 | 19.3 | 0.00 | 11.30 | 0.81 | 83 | 1011.2 |
| 20260830125052 | 20 | 232 | 11.3 | 19.3 | 0.00 | 11.30 | 0.81 | 83 | 1011.2 |
| 20260830124541 | 20 | 210 | 8.0 | 27.4 | 0.00 | 11.30 | 0.81 | 83 | 1011.2 |
| 20260830124022 | 20 | 163 | 12.9 | 27.4 | 0.00 | 11.30 | 0.81 | 82 | 1011.2 |
| 20260830123528 | 20 | 179 | 17.7 | 27.4 | 0.00 | 11.30 | 0.81 | 82 | 1011.3 |
| 20260830123035 | 20 | 236 | 14.5 | 24.1 | 0.00 | 11.30 | 0.81 | 83 | 1011.1 |
| 20260830122524 | 20 | 224 | 12.9 | 22.5 | 0.00 | 11.30 | 0.81 | 86 | 1011.1 |